"startDT [UTC]","vpos","CH4 [ppm]","stdev(CH4) [ppm]","CO2 [ppm]","stdev(CO2) [ppm]","H2O_reported [%]","stdev(H2O_reported)","CavityPressure [torr]","CavityTemp [C]","OutletValve","CH4_dry [ppm]","CO2_dry [ppm]","DasTemp [C]","EtalonTemp [C]","WarmBoxTemp [C]","MPVPosition","T_ECpre [C]","T_EC1 [C]","T_EC2 [C]","p_inlet [hPa]","p_in [hPa]","p_out [hPa]","T_inlet [C]","RH_inlet [%]","dwpt_inlet [C]","T_vent [C]","RH_vent [%]","dwpt_vent [C]","flow_vent [l min-1]","flow_inlet [l min-1]","dwpt_sample [C]","T_room [C]"
2015-07-17 00:00:00,0.0,1.96259,0.00034,388.491,0.097,1.0120,0.0024,140.003,45.000,32327.32581,1.98275,393.382,34.112,45.068,45.000,0.00,0.10,-272.75,-272.81,1,670,-7,24.8,25.0,3.4,24.5,24.7,3.1,5.73,1.77,0.9,28.4
2015-07-17 00:01:00,0.0,1.96270,0.00037,388.413,0.044,1.0142,0.0018,139.999,45.000,32325.55741,1.98290,393.305,34.116,45.068,45.000,0.00,0.10,-272.75,-272.81,2,670,-7,24.8,25.0,3.4,24.5,24.7,3.0,5.73,1.81,0.9,28.4
2015-07-17 00:02:00,0.0,1.96313,0.00048,388.375,0.053,1.0143,0.0018,140.001,45.000,32324.21905,1.98337,393.270,34.121,45.068,45.000,0.00,0.10,-272.74,-272.80,2,670,-7,24.8,25.0,3.4,24.5,24.7,3.0,5.73,1.78,0.9,28.4
2015-07-17 00:03:00,0.0,1.96318,0.00047,388.496,0.054,1.0107,0.0020,140.001,45.000,32322.57685,1.98336,393.374,34.112,45.068,45.000,0.00,0.10,-272.75,-272.80,1,670,-7,24.8,24.9,3.4,24.5,24.8,3.1,5.73,1.70,0.9,28.4
2015-07-17 00:04:00,0.0,1.96339,0.00049,388.680,0.064,1.0104,0.0021,140.003,45.000,32324.48893,1.98358,393.554,34.090,45.068,45.000,0.00,0.10,-272.75,-272.81,1,670,-7,24.8,24.9,3.4,24.5,24.8,3.1,5.73,1.65,0.9,28.4
2015-07-17 00:05:00,0.0,1.96343,0.00056,388.652,0.045,1.0100,0.0014,139.999,45.000,32323.82059,1.98353,393.531,34.079,45.068,45.000,0.00,0.10,-272.74,-272.80,1,670,-7,24.8,24.9,3.4,24.5,24.8,3.1,5.73,1.69,0.9,28.4
2015-07-17 00:06:00,0.0,1.96373,0.00030,388.684,0.039,1.0104,0.0019,140.003,45.000,32326.37888,1.98390,393.563,34.085,45.068,45.000,0.00,0.10,-272.74,-272.81,2,670,-7,24.8,24.9,3.4,24.5,24.8,3.1,5.73,1.76,0.9,28.4
2015-07-17 00:07:00,0.0,1.96641,0.00285,388.943,0.342,1.0083,0.0027,139.998,45.000,32325.18162,1.98626,393.794,34.066,45.068,45.000,0.00,0.10,-272.74,-272.81,2,670,-7,24.8,24.9,3.3,24.5,24.8,3.1,5.73,1.81,0.9,28.4
2015-07-17 00:08:00,0.0,1.97004,0.00048,389.409,0.042,1.0048,0.0020,140.004,45.000,32324.14641,1.99017,394.273,34.071,45.068,45.000,0.00,0.10,-272.74,-272.81,1,670,-7,24.8,24.7,3.3,24.5,24.8,3.1,5.73,1.78,0.9,28.4
2015-07-17 00:09:00,0.0,1.96790,0.00087,389.185,0.092,1.0015,0.0017,140.000,45.000,32321.06809,1.98807,394.034,34.067,45.068,45.000,0.00,0.10,-272.74,-272.80,1,670,-7,24.8,24.7,3.3,24.5,24.8,3.1,5.73,1.70,0.9,28.4
2015-07-17 00:10:00,0.0,1.96610,0.00052,388.958,0.094,1.0013,0.0020,140.000,45.000,32320.31507,1.98614,393.798,34.072,45.068,45.000,0.00,0.10,-272.74,-272.81,2,670,-7,24.8,24.7,3.3,24.5,24.8,3.1,5.73,1.65,0.9,28.3
2015-07-17 00:11:00,0.0,1.96690,0.00111,388.938,0.231,1.0012,0.0023,140.000,45.000,32321.87426,1.98700,393.785,34.081,45.068,45.000,0.00,0.10,-272.74,-272.81,2,670,-7,24.8,24.7,3.2,24.5,24.8,3.1,5.73,1.69,0.9,28.3
2015-07-17 00:12:00,0.0,1.96588,0.00070,388.658,0.100,1.0028,0.0021,140.002,45.000,32325.44551,1.98576,393.490,34.088,45.068,45.000,0.00,0.10,-272.74,-272.81,1,670,-7,24.8,24.8,3.3,24.5,24.8,3.0,5.73,1.76,0.9,28.2
2015-07-17 00:13:00,0.0,1.96760,0.00081,389.014,0.062,1.0050,0.0023,140.000,45.000,32323.65853,1.98769,393.868,34.084,45.068,45.000,0.00,0.10,-272.74,-272.80,1,670,-7,24.8,24.8,3.3,24.5,24.8,3.1,5.73,1.81,0.9,28.3
2015-07-17 00:14:00,0.0,1.96953,0.00178,389.254,0.212,1.0016,0.0031,139.998,45.000,32321.20200,1.98939,394.085,34.073,45.068,45.000,0.00,0.10,-272.75,-272.80,2,670,-7,24.8,24.7,3.2,24.5,24.8,3.0,5.73,1.78,0.9,28.3
2015-07-17 00:15:00,0.0,1.96835,0.00097,389.204,0.120,0.9975,0.0025,139.995,45.000,32320.02144,1.98844,394.037,34.065,45.068,45.000,0.00,0.10,-272.75,-272.81,2,670,-7,24.8,24.6,3.2,24.5,24.8,3.1,5.73,1.69,0.9,28.3
2015-07-17 00:16:00,0.0,1.96746,0.00085,389.069,0.078,0.9943,0.0023,139.996,45.000,32320.11620,1.98724,393.868,34.062,45.068,45.000,0.00,0.10,-272.74,-272.80,2,671,-7,24.8,24.6,3.2,24.5,24.8,3.0,5.73,1.65,0.9,28.3
2015-07-17 00:17:00,0.0,1.97045,0.00097,389.337,0.079,0.9945,0.0020,140.001,45.000,32320.25154,1.99041,394.146,34.063,45.068,45.000,0.00,0.10,-272.74,-272.81,1,670,-7,24.8,24.6,3.2,24.5,24.8,3.1,5.73,1.69,0.9,28.4
2015-07-17 00:18:00,0.0,1.97078,0.00086,389.394,0.072,0.9918,0.0021,139.999,45.000,32321.18708,1.99065,394.188,34.063,45.068,45.000,0.00,0.10,-272.74,-272.81,1,670,-7,24.8,24.4,3.1,24.5,24.8,3.0,5.73,1.77,0.9,28.3
2015-07-17 00:19:00,0.0,1.96857,0.00087,389.220,0.068,0.9883,0.0029,140.004,45.000,32323.53204,1.98838,393.999,34.063,45.068,45.000,0.00,0.10,-272.74,-272.80,2,670,-7,24.8,24.4,3.0,24.5,24.8,3.0,5.73,1.81,0.9,28.3
2015-07-17 00:20:00,0.0,1.96938,0.00144,389.246,0.069,0.9887,0.0017,140.001,45.000,32322.25667,1.98896,394.020,34.060,45.068,45.000,0.00,0.10,-272.74,-272.80,2,671,-7,24.8,24.4,3.0,24.5,24.8,3.0,5.73,1.78,0.9,28.3
2015-07-17 00:21:00,0.0,1.97028,0.00114,389.298,0.040,0.9877,0.0022,140.001,45.000,32323.34029,1.99005,394.073,34.060,45.068,45.000,0.00,0.10,-272.75,-272.81,1,671,-7,24.7,24.4,3.1,24.5,24.8,3.0,5.73,1.70,0.9,28.3
2015-07-17 00:22:00,0.0,1.97119,0.00034,389.269,0.055,0.9881,0.0022,139.999,45.000,32323.94817,1.99100,394.042,34.060,45.068,45.000,0.00,0.10,-272.73,-272.81,1,671,-7,24.7,24.4,3.0,24.5,24.8,3.0,5.73,1.65,0.9,28.2
2015-07-17 00:23:00,0.0,1.97189,0.00075,389.255,0.058,0.9889,0.0014,140.000,45.000,32322.56776,1.99161,394.036,34.060,45.068,45.000,0.00,0.10,-272.74,-272.80,2,671,-7,24.7,24.5,3.1,24.5,24.8,3.0,5.73,1.70,0.9,28.2
2015-07-17 00:24:00,0.0,1.97322,0.00103,389.303,0.044,0.9915,0.0016,140.004,45.000,32323.73200,1.99307,394.094,34.060,45.068,45.000,0.00,0.10,-272.75,-272.81,2,671,-7,24.7,24.5,3.1,24.5,24.8,3.0,5.73,1.77,0.9,28.2
2015-07-17 00:25:00,0.0,1.97318,0.00076,389.268,0.038,0.9897,0.0021,140.001,45.000,32321.46283,1.99309,394.054,34.047,45.068,45.000,0.00,0.10,-272.75,-272.80,1,671,-7,24.7,24.5,3.1,24.5,24.8,3.0,5.73,1.82,0.9,28.2
2015-07-17 00:26:00,0.0,1.97249,0.00035,389.201,0.036,0.9899,0.0015,139.999,45.000,32324.18944,1.99232,393.986,34.001,45.068,45.000,0.00,0.10,-272.74,-272.81,1,671,-7,24.7,24.5,3.1,24.4,24.8,3.0,5.73,1.76,0.9,28.2
2015-07-17 00:27:00,0.0,1.97225,0.00061,389.196,0.023,0.9891,0.0015,140.005,44.999,32325.02626,1.99205,393.975,33.947,45.067,45.000,0.00,0.10,-272.74,-272.81,2,671,-7,24.7,24.4,3.0,24.4,24.8,3.0,5.73,1.66,0.9,28.2
2015-07-17 00:28:00,0.0,1.97217,0.00079,389.205,0.046,0.9824,0.0023,140.004,45.000,32324.43698,1.99182,393.950,33.894,45.067,45.000,0.00,0.10,-272.75,-272.81,2,671,-7,24.7,24.3,2.9,24.4,24.8,3.0,5.73,1.65,0.8,28.2
2015-07-17 00:29:00,0.0,1.97100,0.00086,389.234,0.065,0.9792,0.0018,139.998,44.999,32320.51513,1.99075,393.969,33.846,45.067,45.000,0.00,0.10,-272.74,-272.80,1,671,-7,24.7,24.3,2.9,24.4,24.7,2.9,5.73,1.74,0.8,28.1
2015-07-17 00:30:00,0.0,1.97078,0.00068,389.113,0.038,0.9773,0.0025,140.003,44.999,32320.82235,1.99026,393.834,33.800,45.068,45.000,0.00,0.10,-272.75,-272.80,1,671,-7,24.7,24.2,2.9,24.4,24.7,2.9,5.73,1.83,0.8,28.1
2015-07-17 00:31:00,0.0,1.97134,0.00080,389.136,0.023,0.9762,0.0022,140.001,44.999,32320.96628,1.99091,393.849,33.750,45.068,45.000,0.00,0.10,-272.75,-272.81,2,671,-7,24.7,24.2,2.9,24.4,24.7,2.9,5.73,1.77,0.8,28.1
2015-07-17 00:32:00,0.0,1.97056,0.00068,389.072,0.049,0.9783,0.0014,140.005,44.999,32320.72170,1.99019,393.798,33.706,45.068,45.000,0.00,0.10,-272.74,-272.80,2,671,-7,24.7,24.3,2.9,24.4,24.7,2.9,5.73,1.66,0.8,28.2
2015-07-17 00:33:00,0.0,1.97034,0.00060,389.027,0.051,0.9789,0.0017,140.000,44.999,32319.42010,1.98988,393.751,33.689,45.068,45.000,0.00,0.10,-272.73,-272.80,1,671,-7,24.7,24.3,2.9,24.4,24.7,2.9,5.73,1.65,0.8,28.1
2015-07-17 00:34:00,0.0,1.97223,0.00059,389.061,0.033,0.9806,0.0021,140.005,44.999,32316.69811,1.99182,393.796,33.661,45.068,45.000,0.00,0.10,-272.74,-272.81,1,671,-7,24.6,24.4,2.9,24.3,24.7,2.9,5.73,1.75,0.8,28.1
2015-07-17 00:35:00,0.0,1.97087,0.00079,388.981,0.043,0.9805,0.0019,140.000,44.999,32315.75384,1.99054,393.715,33.626,45.068,45.000,0.00,0.10,-272.75,-272.81,2,671,-7,24.6,24.4,2.9,24.3,24.7,2.9,5.73,1.83,0.8,28.1
2015-07-17 00:36:00,0.0,1.97111,0.00077,389.011,0.025,0.9827,0.0029,140.004,45.000,32315.71634,1.99074,393.757,33.610,45.068,45.000,0.00,0.10,-272.74,-272.80,2,671,-7,24.6,24.4,2.9,24.3,24.7,2.9,5.73,1.77,0.8,28.1
2015-07-17 00:37:00,0.0,1.97072,0.00065,389.013,0.030,0.9825,0.0019,139.994,45.000,32310.79587,1.99043,393.755,33.589,45.068,45.000,0.00,0.10,-272.74,-272.81,1,672,-7,24.6,24.4,2.9,24.3,24.7,2.9,5.73,1.66,0.8,28.0
2015-07-17 00:38:00,0.0,1.97038,0.00046,388.993,0.052,0.9821,0.0024,139.999,45.000,32310.01404,1.99003,393.737,33.560,45.068,45.000,0.00,0.10,-272.74,-272.81,1,672,-7,24.6,24.5,2.9,24.3,24.7,2.8,5.73,1.65,0.8,28.0
2015-07-17 00:39:00,0.0,1.97086,0.00058,389.001,0.037,0.9831,0.0020,140.000,45.000,32309.42390,1.99051,393.746,33.527,45.068,45.000,0.00,0.10,-272.74,-272.80,2,671,-7,24.6,24.5,3.0,24.3,24.7,2.9,5.73,1.75,0.8,28.1
2015-07-17 00:40:00,0.0,1.97062,0.00050,388.956,0.070,0.9834,0.0017,139.999,45.000,32308.88200,1.99031,393.705,33.500,45.068,45.000,0.00,0.10,-272.74,-272.80,2,672,-7,24.6,24.5,2.9,24.3,24.7,2.8,5.73,1.83,0.7,28.1
2015-07-17 00:41:00,0.0,1.97054,0.00042,389.027,0.035,0.9822,0.0017,139.999,45.000,32310.24626,1.99025,393.770,33.496,45.068,45.000,0.00,0.10,-272.75,-272.81,1,672,-7,24.5,24.5,2.9,24.3,24.7,2.8,5.73,1.76,0.7,28.0
2015-07-17 00:42:00,0.0,1.97113,0.00047,389.003,0.037,0.9828,0.0015,140.002,45.000,32308.72805,1.99069,393.747,33.496,45.068,45.000,0.00,0.10,-272.75,-272.80,1,672,-7,24.5,24.6,3.0,24.3,24.7,2.8,5.73,1.65,0.7,28.0
2015-07-17 00:43:00,0.0,1.97177,0.00055,389.028,0.044,0.9823,0.0020,140.005,45.000,32308.02149,1.99147,393.772,33.487,45.068,45.000,0.00,0.10,-272.74,-272.81,2,672,-7,24.5,24.6,2.9,24.3,24.7,2.8,5.73,1.66,0.7,27.9
2015-07-17 00:44:00,0.0,1.97148,0.00027,389.044,0.044,0.9811,0.0012,140.003,45.000,32306.80545,1.99113,393.781,33.465,45.068,45.000,0.00,0.10,-272.75,-272.81,2,672,-7,24.5,24.5,2.9,24.3,24.7,2.8,5.73,1.78,0.7,27.9
2015-07-17 00:45:00,0.0,1.97148,0.00045,388.984,0.021,0.9797,0.0033,140.002,45.000,32306.90746,1.99115,393.716,33.444,45.068,45.000,0.00,0.10,-272.75,-272.81,1,672,-7,24.5,24.5,2.9,24.3,24.7,2.8,5.73,1.83,0.7,27.9
2015-07-17 00:46:00,0.0,1.97094,0.00050,388.968,0.027,0.9794,0.0023,140.003,45.000,32306.08413,1.99051,393.697,33.437,45.068,45.000,0.00,0.10,-272.75,-272.80,2,672,-7,24.5,24.5,2.9,24.2,24.7,2.8,5.73,1.75,0.7,27.9
2015-07-17 00:47:00,0.0,1.97077,0.00046,388.905,0.043,0.9785,0.0012,140.000,45.000,32307.87879,1.99036,393.628,33.414,45.068,45.000,0.00,0.10,-272.74,-272.81,2,672,-7,24.5,24.5,2.9,24.2,24.7,2.7,5.73,1.64,0.7,27.9
2015-07-17 00:48:00,0.0,1.97093,0.00036,388.901,0.045,0.9781,0.0022,139.994,45.000,32304.66793,1.99050,393.622,33.384,45.068,45.000,0.00,0.10,-272.74,-272.81,2,672,-7,24.5,24.5,2.9,24.2,24.7,2.7,5.73,1.68,0.7,27.9
2015-07-17 00:49:00,0.0,1.97007,0.00075,388.905,0.023,0.9772,0.0016,140.006,45.000,32310.13112,1.98968,393.622,33.378,45.068,45.000,0.00,0.10,-272.74,-272.81,1,672,-6,24.5,24.5,2.9,24.2,24.7,2.8,5.73,1.80,0.7,27.9
2015-07-17 00:50:00,0.0,1.97059,0.00047,388.904,0.026,0.9791,0.0021,140.003,45.000,32307.19524,1.99008,393.628,33.375,45.068,45.000,0.00,0.10,-272.75,-272.80,2,672,-6,24.4,24.6,2.9,24.2,24.7,2.7,5.73,1.83,0.7,27.9
2015-07-17 00:51:00,0.0,1.97132,0.00055,388.944,0.050,0.9811,0.0018,139.998,45.000,32304.43980,1.99092,393.676,33.375,45.068,45.000,0.00,0.10,-272.75,-272.81,2,672,-6,24.4,24.7,2.9,24.1,24.7,2.7,5.73,1.71,0.7,27.9
2015-07-17 00:52:00,0.0,1.97215,0.00045,388.988,0.038,0.9824,0.0031,140.001,45.000,32305.58410,1.99179,393.734,33.374,45.068,45.000,0.00,0.10,-272.74,-272.81,2,672,-6,24.4,24.7,2.9,24.2,24.7,2.7,5.73,1.63,0.7,27.8
2015-07-17 00:53:00,0.0,1.97263,0.00049,388.885,0.040,0.9834,0.0020,140.001,45.000,32304.18603,1.99237,393.632,33.365,45.068,45.000,0.00,0.10,-272.74,-272.80,2,672,-6,24.4,24.8,3.0,24.1,24.7,2.7,5.73,1.71,0.7,27.8
2015-07-17 00:54:00,0.0,1.97278,0.00049,388.870,0.057,0.9846,0.0015,140.002,45.000,32304.41644,1.99248,393.626,33.349,45.068,45.000,0.00,0.10,-272.74,-272.81,2,672,-6,24.4,24.8,3.0,24.1,24.8,2.7,5.73,1.83,0.7,27.8
2015-07-17 00:55:00,0.0,1.97256,0.00060,388.801,0.091,0.9857,0.0017,139.999,45.000,32302.76503,1.99232,393.558,33.353,45.068,45.000,0.00,0.10,-272.75,-272.81,2,672,-6,24.4,24.8,3.0,24.1,24.8,2.7,5.73,1.80,0.6,27.8
2015-07-17 00:56:00,0.0,1.97274,0.00050,388.697,0.072,0.9862,0.0021,139.999,45.000,32302.71049,1.99251,393.454,33.340,45.068,45.000,0.00,0.10,-272.75,-272.80,1,672,-6,24.4,24.9,3.0,24.1,24.8,2.8,5.73,1.68,0.6,27.8
2015-07-17 00:57:00,0.0,1.97303,0.00048,388.788,0.067,0.9863,0.0025,140.000,45.000,32302.79860,1.99274,393.552,33.327,45.068,45.000,0.00,0.10,-272.74,-272.80,2,672,-6,24.4,24.9,3.0,24.1,24.8,2.8,5.73,1.65,0.6,27.8
2015-07-17 00:58:00,0.0,1.97373,0.00066,388.733,0.133,0.9876,0.0021,140.002,45.000,32301.21845,1.99348,393.496,33.313,45.068,45.000,0.00,0.10,-272.75,-272.81,3,672,-6,24.4,25.0,3.0,24.1,24.8,2.8,5.73,1.74,0.6,27.8
2015-07-17 00:59:00,0.0,1.97415,0.00050,388.724,0.043,0.9888,0.0022,140.002,45.000,32301.72636,1.99396,393.497,33.313,45.068,45.000,0.00,0.10,-272.74,-272.80,2,672,-6,24.3,25.0,3.0,24.1,24.9,2.8,5.73,1.83,0.6,27.8
2015-07-17 01:00:00,0.0,1.97379,0.00060,388.646,0.051,0.9880,0.0015,139.998,45.000,32299.03621,1.99365,393.416,33.312,45.068,45.000,0.00,0.10,-272.74,-272.80,1,672,-6,24.3,25.0,3.0,24.1,24.9,2.7,5.73,1.79,0.6,27.9
2015-07-17 01:01:00,0.0,1.97327,0.00041,388.684,0.062,0.9886,0.0014,140.001,45.000,32299.18544,1.99312,393.454,33.307,45.068,45.000,0.00,0.10,-272.75,-272.81,2,672,-6,24.3,25.0,3.0,24.1,24.9,2.8,5.73,1.68,0.6,27.9
2015-07-17 01:02:00,0.0,1.97341,0.00030,388.619,0.060,0.9893,0.0022,140.002,45.000,32299.51263,1.99321,393.394,33.279,45.068,45.000,0.00,0.10,-272.74,-272.81,3,672,-6,24.3,25.1,3.1,24.1,24.9,2.7,5.73,1.65,0.6,27.9
2015-07-17 01:03:00,0.0,1.97376,0.00041,388.658,0.072,0.9912,0.0019,139.998,45.000,32298.11402,1.99365,393.435,33.291,45.068,45.000,0.00,0.10,-272.73,-272.81,2,672,-6,24.3,25.1,3.1,24.1,24.9,2.7,5.73,1.74,0.6,27.9
2015-07-17 01:04:00,0.0,1.97415,0.00057,388.741,0.055,0.9929,0.0020,139.998,45.000,32296.06837,1.99401,393.532,33.293,45.068,45.000,0.00,0.10,-272.74,-272.81,1,672,-6,24.3,25.1,3.1,24.1,24.9,2.8,5.73,1.83,0.6,27.9
2015-07-17 01:05:00,0.0,1.97375,0.00039,388.734,0.066,0.9925,0.0024,140.001,45.000,32296.95189,1.99369,393.528,33.269,45.068,45.000,0.00,0.10,-272.75,-272.81,2,672,-6,24.3,25.2,3.1,24.1,24.9,2.7,5.73,1.79,0.6,27.9
2015-07-17 01:06:00,0.0,1.97364,0.00039,388.588,0.065,0.9952,0.0019,139.999,45.000,32295.36956,1.99357,393.388,33.256,45.068,45.000,0.00,0.10,-272.74,-272.80,3,672,-6,24.3,25.3,3.1,24.0,24.9,2.7,5.73,1.67,0.6,27.9
2015-07-17 01:07:00,0.0,1.97353,0.00046,388.636,0.041,0.9956,0.0018,139.997,45.000,32295.30061,1.99353,393.441,33.252,45.068,45.000,0.00,0.10,-272.75,-272.81,2,672,-6,24.3,25.3,3.2,24.0,24.9,2.7,5.73,1.65,0.6,27.9
2015-07-17 01:08:00,0.0,1.97282,0.00069,388.615,0.097,0.9962,0.0014,140.001,45.000,32296.37709,1.99286,393.427,33.250,45.068,45.000,0.00,0.10,-272.75,-272.81,2,672,-6,24.3,25.3,3.1,24.0,24.9,2.7,5.73,1.75,0.6,27.8
2015-07-17 01:09:00,0.0,1.97309,0.00043,388.598,0.061,0.9963,0.0022,139.998,45.000,32294.70312,1.99302,393.400,33.250,45.068,45.000,0.00,0.10,-272.74,-272.80,2,672,-6,24.3,25.3,3.1,24.0,25.0,2.7,5.73,1.83,0.6,27.9
2015-07-17 01:10:00,0.0,1.97361,0.00044,388.544,0.076,0.9981,0.0018,139.997,45.000,32294.74563,1.99356,393.364,33.251,45.068,45.000,0.00,0.10,-272.75,-272.80,3,672,-6,24.3,25.4,3.2,24.0,25.0,2.7,5.73,1.79,0.6,27.8
2015-07-17 01:11:00,0.0,1.97360,0.00039,388.531,0.057,0.9976,0.0018,140.001,45.000,32297.79803,1.99361,393.345,33.250,45.068,45.000,0.00,0.10,-272.75,-272.81,2,672,-6,24.3,25.4,3.2,24.0,25.0,2.7,5.73,1.68,0.6,27.9
2015-07-17 01:12:00,0.0,1.97335,0.00072,388.385,0.115,0.9971,0.0021,139.998,45.000,32298.57679,1.99332,393.192,33.253,45.068,45.000,0.00,0.10,-272.74,-272.81,2,672,-6,24.2,25.4,3.2,24.0,25.0,2.7,5.73,1.64,0.6,27.9
2015-07-17 01:13:00,0.0,1.97370,0.00051,388.677,0.043,0.9969,0.0013,139.995,45.000,32296.29509,1.99372,393.488,33.255,45.068,45.000,0.00,0.10,-272.74,-272.81,3,672,-6,24.2,25.4,3.2,24.0,25.0,2.8,5.73,1.74,0.6,27.8
2015-07-17 01:14:00,0.0,1.97415,0.00054,388.687,0.051,0.9963,0.0009,140.000,45.000,32297.13637,1.99410,393.494,33.252,45.068,45.000,0.00,0.10,-272.74,-272.81,3,672,-6,24.2,25.4,3.2,24.0,25.0,2.8,5.73,1.83,0.6,27.8
2015-07-17 01:15:00,0.0,1.97413,0.00034,388.634,0.045,0.9980,0.0022,140.001,45.000,32296.89238,1.99417,393.448,33.253,45.068,45.000,0.00,0.10,-272.75,-272.81,2,672,-6,24.2,25.5,3.2,24.0,25.0,2.8,5.73,1.79,0.6,27.9
2015-07-17 01:16:00,0.0,1.97402,0.00064,388.673,0.062,0.9978,0.0014,140.005,45.000,32295.61129,1.99405,393.494,33.266,45.068,45.000,0.00,0.10,-272.74,-272.80,2,672,-6,24.2,25.5,3.2,24.0,25.1,2.8,5.73,1.68,0.5,27.9
2015-07-17 01:17:00,0.0,1.97405,0.00033,388.742,0.051,0.9981,0.0023,140.006,45.000,32298.04939,1.99402,393.556,33.264,45.068,45.000,0.00,0.10,-272.74,-272.81,3,672,-6,24.2,25.4,3.2,24.0,25.1,2.8,5.73,1.65,0.5,27.9
2015-07-17 01:18:00,0.0,1.97470,0.00049,388.808,0.057,0.9949,0.0026,140.004,45.000,32295.80325,1.99462,393.614,33.252,45.068,45.000,0.00,0.10,-272.74,-272.81,3,672,-6,24.2,25.4,3.1,24.0,25.1,2.8,5.73,1.73,0.5,27.8
2015-07-17 01:19:00,0.0,1.97476,0.00055,388.641,0.041,0.9953,0.0018,140.002,45.000,32297.22100,1.99477,393.446,33.250,45.068,45.000,0.00,0.10,-272.74,-272.81,2,672,-6,24.2,25.5,3.2,24.0,25.1,2.8,5.73,1.82,0.5,27.8
2015-07-17 01:20:00,0.0,1.97488,0.00056,388.643,0.048,0.9989,0.0018,140.003,45.000,32297.45412,1.99488,393.464,33.250,45.068,45.000,0.00,0.10,-272.74,-272.80,2,672,-6,24.2,25.6,3.3,23.9,25.2,2.8,5.73,1.80,0.5,27.9
2015-07-17 01:21:00,0.0,1.97476,0.00046,388.655,0.061,1.0002,0.0024,139.999,45.000,32293.99730,1.99484,393.481,33.250,45.068,45.000,0.00,0.10,-272.75,-272.80,3,672,-6,24.2,25.6,3.3,23.9,25.2,2.8,5.73,1.70,0.5,27.9
2015-07-17 01:22:00,0.0,1.97468,0.00038,388.636,0.050,0.9986,0.0017,140.002,45.000,32296.87027,1.99475,393.458,33.250,45.068,45.000,0.00,0.10,-272.75,-272.81,3,672,-6,24.2,25.6,3.2,23.9,25.2,2.8,5.73,1.65,0.5,27.8
2015-07-17 01:23:00,0.0,1.97396,0.00082,388.525,0.052,1.0012,0.0021,140.004,45.000,32299.37525,1.99411,393.356,33.247,45.068,45.000,0.00,0.32,-270.74,-270.67,2,672,-6,24.2,25.7,3.3,23.9,25.2,2.8,5.43,1.80,-3.0,27.8
2015-07-17 01:24:00,0.0,1.97367,0.00056,388.504,0.041,1.0030,0.0030,139.998,45.000,32294.65098,1.99375,393.346,33.245,45.068,45.000,0.00,0.10,-272.75,-272.80,2,672,-6,24.1,25.8,3.3,23.9,25.2,2.8,5.73,1.82,0.5,27.8
2015-07-17 01:25:00,0.0,1.97373,0.00074,388.478,0.108,1.0080,0.0022,140.000,45.000,32293.88528,1.99396,393.346,33.240,45.068,45.000,0.00,0.10,-272.75,-272.81,3,672,-6,24.1,26.0,3.4,23.9,25.2,2.8,5.73,1.81,0.5,27.8
2015-07-17 01:26:00,0.0,1.97359,0.00072,388.371,0.068,1.0113,0.0031,140.002,45.000,32293.18862,1.99384,393.249,33.227,45.068,45.000,0.00,0.10,-272.75,-272.80,3,672,-6,24.1,26.1,3.5,23.9,25.2,2.8,5.73,1.71,0.5,27.8
2015-07-17 01:27:00,0.0,1.97470,0.00054,388.349,0.054,1.0153,0.0022,140.001,45.000,32293.15296,1.99501,393.245,33.246,45.068,45.000,0.00,0.10,-272.74,-272.80,2,672,-6,24.1,26.3,3.6,23.9,25.3,2.8,5.73,1.65,0.5,27.8
2015-07-17 01:28:00,0.0,1.97511,0.00070,388.354,0.082,1.0194,0.0021,140.003,45.000,32290.14317,1.99567,393.281,33.250,45.068,45.000,0.00,0.10,-272.75,-272.81,2,672,-6,24.1,26.4,3.6,23.9,25.3,2.8,5.73,1.70,0.5,27.8
2015-07-17 01:29:00,0.0,1.97320,0.00051,388.181,0.100,1.0236,0.0025,140.002,45.000,32291.00897,1.99379,393.119,33.250,45.068,45.000,0.00,0.10,-272.74,-272.81,3,672,-6,24.1,26.6,3.7,23.9,25.3,2.8,5.73,1.81,0.5,27.8
2015-07-17 01:30:00,0.0,1.97307,0.00046,388.113,0.108,1.0284,0.0021,139.995,45.000,32287.91871,1.99368,393.079,33.250,45.068,45.000,0.00,0.10,-272.74,-272.80,3,672,-6,24.1,26.7,3.8,23.9,25.3,2.8,5.73,1.83,0.5,27.8
2015-07-17 01:31:00,0.0,1.97242,0.00077,388.043,0.087,1.0330,0.0018,140.003,45.000,32290.61136,1.99316,393.024,33.250,45.068,45.000,0.00,0.10,-272.75,-272.81,2,672,-6,24.1,26.9,3.9,23.9,25.3,2.8,5.73,1.73,0.5,27.8
2015-07-17 01:32:00,0.0,1.97244,0.00061,388.038,0.136,1.0333,0.0020,139.999,45.000,32289.92055,1.99323,393.034,33.250,45.068,45.000,0.00,0.10,-272.75,-272.81,2,672,-6,24.1,26.7,3.8,23.8,25.3,2.8,5.73,1.65,0.5,27.9
2015-07-17 01:33:00,0.0,1.97098,0.00104,387.882,0.181,1.0341,0.0021,140.003,45.000,32293.85085,1.99180,392.864,33.250,45.068,45.000,0.00,0.10,-272.74,-272.80,3,672,-6,24.1,26.9,3.9,23.9,25.4,2.8,5.73,1.68,0.5,27.9
2015-07-17 01:34:00,0.0,1.97139,0.00101,387.912,0.115,1.0379,0.0025,140.003,45.000,32293.08392,1.99217,392.917,33.250,45.068,45.000,0.00,0.10,-272.74,-272.80,3,672,-6,24.1,27.0,3.9,23.8,25.4,2.8,5.73,1.78,0.5,27.8
2015-07-17 01:35:00,0.0,1.97245,0.00081,387.796,0.098,1.0411,0.0018,140.000,45.000,32293.91334,1.99326,392.824,33.252,45.068,45.000,0.00,0.10,-272.75,-272.81,2,672,-6,24.1,27.1,4.0,23.9,25.4,2.9,5.73,1.83,0.5,27.8
2015-07-17 01:36:00,0.0,1.97236,0.00030,387.669,0.091,1.0413,0.0012,139.997,45.000,32294.06684,1.99326,392.687,33.250,45.068,45.000,0.00,0.10,-272.74,-272.80,2,672,-6,24.1,27.1,3.9,23.9,25.5,2.9,5.73,1.76,0.5,27.8
2015-07-17 01:37:00,0.0,1.97156,0.00057,387.809,0.142,1.0379,0.0026,139.999,45.000,32293.28701,1.99243,392.814,33.250,45.068,45.000,0.00,0.10,-272.75,-272.81,3,672,-6,24.1,26.9,3.9,23.9,25.5,2.9,5.73,1.67,0.5,27.8
2015-07-17 01:38:00,0.0,1.97176,0.00058,387.926,0.049,1.0381,0.0016,139.998,45.000,32292.60795,1.99254,392.933,33.240,45.068,45.000,0.00,0.10,-272.75,-272.81,3,672,-6,24.1,27.0,3.9,23.8,25.5,2.9,5.73,1.66,0.5,27.7
2015-07-17 01:39:00,0.0,1.97282,0.00100,387.817,0.094,1.0385,0.0021,140.004,45.000,32293.24049,1.99361,392.830,33.241,45.068,45.000,0.00,0.10,-272.74,-272.81,2,672,-6,24.1,27.1,3.9,23.9,25.6,3.0,5.73,1.74,0.5,27.8
2015-07-17 01:40:00,0.0,1.97310,0.00166,387.964,0.061,1.0358,0.0018,140.002,45.000,32291.92269,1.99399,392.956,33.245,45.068,45.000,0.00,0.10,-272.74,-272.80,2,672,-6,24.1,26.9,3.9,23.9,25.6,3.0,5.73,1.82,0.5,27.8
2015-07-17 01:41:00,0.0,1.97210,0.00096,387.942,0.100,1.0356,0.0028,140.000,45.000,32292.46393,1.99273,392.945,33.233,45.068,45.000,0.00,0.10,-272.75,-272.81,3,672,-6,24.0,27.0,3.9,23.8,25.6,3.0,5.73,1.79,0.5,27.8
2015-07-17 01:42:00,0.0,1.97375,0.00087,388.021,0.090,1.0352,0.0032,140.001,45.000,32290.56808,1.99462,393.007,33.214,45.068,45.000,0.00,0.10,-272.75,-272.81,3,672,-6,24.0,27.0,3.9,23.8,25.7,3.0,5.73,1.71,0.5,27.8
2015-07-17 01:43:00,0.0,1.97424,0.00052,388.044,0.096,1.0338,0.0025,139.998,45.000,32288.71938,1.99498,393.036,33.200,45.068,45.000,0.00,0.10,-272.74,-272.81,2,672,-6,24.0,26.9,3.8,23.8,25.7,3.0,5.73,1.65,0.5,27.8
2015-07-17 01:44:00,0.0,1.97192,0.00106,387.834,0.045,1.0369,0.0024,140.001,45.000,32290.63923,1.99289,392.835,33.192,45.068,45.000,0.00,0.10,-272.74,-272.81,2,672,-6,24.0,27.1,3.9,23.8,25.8,3.0,5.73,1.70,0.5,27.8
2015-07-17 01:45:00,0.0,1.97267,0.00170,387.823,0.096,1.0396,0.0021,140.000,45.000,32292.11036,1.99336,392.836,33.188,45.068,45.000,0.00,0.10,-272.75,-272.81,3,672,-6,24.0,27.1,3.9,23.8,25.8,3.0,5.73,1.79,0.5,27.7
2015-07-17 01:46:00,0.0,1.97579,0.00110,388.059,0.052,1.0379,0.0030,139.999,45.000,32288.79954,1.99654,393.064,33.192,45.068,45.000,0.00,0.10,-272.74,-272.81,3,672,-6,24.0,27.0,3.8,23.8,25.9,3.1,5.73,1.81,0.5,27.8
2015-07-17 01:47:00,0.0,1.97674,0.00041,388.124,0.037,1.0321,0.0018,139.999,45.000,32287.89110,1.99749,393.106,33.193,45.068,45.000,0.00,0.10,-272.75,-272.80,2,672,-6,24.0,26.8,3.8,23.8,25.9,3.1,5.73,1.76,0.5,27.8
2015-07-17 01:48:00,0.0,1.97585,0.00047,388.125,0.034,1.0318,0.0026,139.999,45.000,32287.40771,1.99657,393.100,33.211,45.068,45.000,0.00,0.10,-272.75,-272.81,2,672,-6,24.0,26.9,3.8,23.8,25.9,3.1,5.73,1.66,0.5,27.8